Location: Unspecified
(49.9820°N, 20.4363°E)
Time: 09:35:06
(UTC+02:00)

ISS - Pass Details

Date: 19 July 2018
Orbit: 402 x 408 km, 51.6° (Epoch: 23 July)

Event Time Altitude Azimuth Distance (km) Brightness Sun altitude
Rises 01:30:38 0° 275° (W) 2,328 0.0 -18.4°
Reaches altitude 10° 01:32:44 10° 278° (W) 1,469 -1.0 -18.3°
Maximum altitude 01:36:00 62° 0° (N) 462 -3.4 -18.2°
Drops below altitude 10° 01:39:17 10° 83° (E) 1,472 -0.8 -18.1°
Sets 01:41:23 0° 87° (E) 2,333 0.3 -18.0°
